Year,Month,Day,Hour,Minute,Value (Times are PST for temperature in C)
2008,07,03,00,00,14.20
2008,07,03,00,01,14.20
2008,07,03,00,02,14.10
2008,07,03,00,03,14.00
2008,07,03,00,04,13.90
2008,07,03,00,05,13.80
2008,07,03,00,06,13.60
2008,07,03,00,07,13.50
2008,07,03,00,08,13.40
2008,07,03,00,09,13.30
2008,07,03,00,10,13.30
2008,07,03,00,11,13.20
2008,07,03,00,12,13.20
2008,07,03,00,13,13.20
2008,07,03,00,14,13.20
2008,07,03,00,15,13.10
2008,07,03,00,16,13.10
2008,07,03,00,17,13.10
2008,07,03,00,18,13.10
2008,07,03,00,19,13.10
2008,07,03,00,20,13.10
2008,07,03,00,21,13.10
2008,07,03,00,22,13.00
2008,07,03,00,23,13.00
2008,07,03,00,24,13.00
2008,07,03,00,25,13.00
2008,07,03,00,26,12.90
2008,07,03,00,27,12.90
2008,07,03,00,28,12.90
2008,07,03,00,29,12.90
2008,07,03,00,30,12.90
2008,07,03,00,31,12.90
2008,07,03,00,32,12.80
2008,07,03,00,33,12.80
2008,07,03,00,34,12.80
2008,07,03,00,35,12.80
2008,07,03,00,36,12.80
2008,07,03,00,37,12.70
2008,07,03,00,38,12.70
2008,07,03,00,39,12.70
2008,07,03,00,40,12.70
2008,07,03,00,41,12.60
2008,07,03,00,42,12.60
2008,07,03,00,43,12.60
2008,07,03,00,44,12.60
2008,07,03,00,45,12.60
2008,07,03,00,46,12.60
2008,07,03,00,47,12.60
2008,07,03,00,48,12.60
2008,07,03,00,49,12.60
2008,07,03,00,50,12.60
2008,07,03,00,51,12.50
2008,07,03,00,52,12.50
2008,07,03,00,53,12.50
2008,07,03,00,54,12.50
2008,07,03,00,55,12.50
2008,07,03,00,56,12.50
2008,07,03,00,57,12.50
2008,07,03,00,58,12.50
2008,07,03,00,59,12.50
2008,07,03,01,00,12.50
2008,07,03,01,01,12.40
2008,07,03,01,02,12.40
2008,07,03,01,03,12.40
2008,07,03,01,04,12.40
2008,07,03,01,05,12.40
2008,07,03,01,06,12.40
2008,07,03,01,07,12.30
2008,07,03,01,08,12.30
2008,07,03,01,09,12.30
2008,07,03,01,10,12.30
2008,07,03,01,11,12.30
2008,07,03,01,12,12.30
2008,07,03,01,13,12.30
2008,07,03,01,14,12.20
2008,07,03,01,15,12.20
2008,07,03,01,16,12.20
2008,07,03,01,17,12.20
2008,07,03,01,18,12.20
2008,07,03,01,19,12.20
2008,07,03,01,20,12.10
2008,07,03,01,21,12.10
2008,07,03,01,22,12.10
2008,07,03,01,23,12.10
2008,07,03,01,24,12.10
2008,07,03,01,25,12.10
2008,07,03,01,26,12.10
2008,07,03,01,27,12.10
2008,07,03,01,28,12.10
2008,07,03,01,29,12.10
2008,07,03,01,30,12.20
2008,07,03,01,31,12.20
2008,07,03,01,32,12.20
2008,07,03,01,33,12.20
2008,07,03,01,34,12.20
2008,07,03,01,35,12.20
2008,07,03,01,36,12.30
2008,07,03,01,37,12.30
2008,07,03,01,38,12.30
2008,07,03,01,39,12.30
2008,07,03,01,40,12.30
2008,07,03,01,41,12.30
2008,07,03,01,42,12.30
2008,07,03,01,43,12.40
2008,07,03,01,44,12.40
2008,07,03,01,45,12.50
2008,07,03,01,46,12.50
2008,07,03,01,47,12.60
2008,07,03,01,48,12.60
2008,07,03,01,49,12.60
2008,07,03,01,50,12.70
2008,07,03,01,51,12.70
2008,07,03,01,52,12.80
2008,07,03,01,53,12.80
2008,07,03,01,54,12.80
2008,07,03,01,55,12.80
2008,07,03,01,56,12.80
2008,07,03,01,57,12.80
2008,07,03,01,58,12.80
2008,07,03,01,59,12.80
2008,07,03,02,00,12.80
2008,07,03,02,01,12.80
2008,07,03,02,02,12.80
2008,07,03,02,03,12.80
2008,07,03,02,04,12.80
2008,07,03,02,05,12.80
2008,07,03,02,06,12.90
2008,07,03,02,07,12.90
2008,07,03,02,08,12.90
2008,07,03,02,09,12.90
2008,07,03,02,10,12.90
2008,07,03,02,11,12.90
2008,07,03,02,12,12.90
2008,07,03,02,13,12.90
2008,07,03,02,14,12.90
2008,07,03,02,15,12.90
2008,07,03,02,16,12.90
2008,07,03,02,17,12.90
2008,07,03,02,18,12.90
2008,07,03,02,19,12.90
2008,07,03,02,20,12.90
2008,07,03,02,21,12.90
2008,07,03,02,22,12.90
2008,07,03,02,23,12.90
2008,07,03,02,24,12.90
2008,07,03,02,25,12.90
2008,07,03,02,26,12.90
2008,07,03,02,27,12.90
2008,07,03,02,28,12.90
2008,07,03,02,29,12.90
2008,07,03,02,30,12.90
2008,07,03,02,31,12.90
2008,07,03,02,32,12.90
2008,07,03,02,33,12.90
2008,07,03,02,34,12.90
2008,07,03,02,35,12.80
2008,07,03,02,36,12.80
2008,07,03,02,37,12.80
2008,07,03,02,38,12.80
2008,07,03,02,39,12.70
2008,07,03,02,40,12.70
2008,07,03,02,41,12.70
2008,07,03,02,42,12.70
2008,07,03,02,43,12.60
2008,07,03,02,44,12.60
2008,07,03,02,45,12.60
2008,07,03,02,46,12.60
2008,07,03,02,47,12.60
2008,07,03,02,48,12.60
2008,07,03,02,49,12.60
2008,07,03,02,50,12.60
2008,07,03,02,51,12.60
2008,07,03,02,52,12.50
2008,07,03,02,53,12.50
2008,07,03,02,54,12.50
2008,07,03,02,55,12.50
2008,07,03,02,56,12.50
2008,07,03,02,57,12.50
2008,07,03,02,58,12.50
2008,07,03,02,59,12.50
2008,07,03,03,00,12.50
2008,07,03,03,01,12.50
2008,07,03,03,02,12.50
2008,07,03,03,03,12.50
2008,07,03,03,04,12.50
2008,07,03,03,05,12.40
2008,07,03,03,06,12.40
2008,07,03,03,07,12.40
2008,07,03,03,08,12.40
2008,07,03,03,09,12.40
2008,07,03,03,10,12.40
2008,07,03,03,11,12.40
2008,07,03,03,12,12.40
2008,07,03,03,13,12.40
2008,07,03,03,14,12.40
2008,07,03,03,15,12.40
2008,07,03,03,16,12.40
2008,07,03,03,17,12.40
2008,07,03,03,18,12.30
2008,07,03,03,19,12.40
2008,07,03,03,20,12.40
2008,07,03,03,21,12.40
2008,07,03,03,22,12.40
2008,07,03,03,23,12.40
2008,07,03,03,24,12.30
2008,07,03,03,25,12.30
2008,07,03,03,26,12.30
2008,07,03,03,27,12.30
2008,07,03,03,28,12.30
2008,07,03,03,29,12.30
2008,07,03,03,30,12.30
2008,07,03,03,31,12.30
2008,07,03,03,32,12.30
2008,07,03,03,33,12.30
2008,07,03,03,34,12.30
2008,07,03,03,35,12.30
2008,07,03,03,36,12.20
2008,07,03,03,37,12.20
2008,07,03,03,38,12.20
2008,07,03,03,39,12.20
2008,07,03,03,40,12.20
2008,07,03,03,41,12.10
2008,07,03,03,42,12.10
2008,07,03,03,43,12.10
2008,07,03,03,44,12.10
2008,07,03,03,45,12.10
2008,07,03,03,46,12.10
2008,07,03,03,47,12.10
2008,07,03,03,48,12.00
2008,07,03,03,49,12.00
2008,07,03,03,50,11.90
2008,07,03,03,51,11.90
2008,07,03,03,52,11.90
2008,07,03,03,53,11.90
2008,07,03,03,54,11.80
2008,07,03,03,55,11.80
2008,07,03,03,56,11.80
2008,07,03,03,57,11.80
2008,07,03,03,58,11.80
2008,07,03,03,59,11.80
2008,07,03,04,00,11.80
2008,07,03,04,01,11.80
2008,07,03,04,02,11.80
2008,07,03,04,03,11.80
2008,07,03,04,04,11.70
2008,07,03,04,05,11.70
2008,07,03,04,06,11.70
2008,07,03,04,07,11.70
2008,07,03,04,08,11.70
2008,07,03,04,09,11.70
2008,07,03,04,10,11.70
2008,07,03,04,11,11.70
2008,07,03,04,12,11.70
2008,07,03,04,13,11.70
2008,07,03,04,14,11.70
2008,07,03,04,15,11.70
2008,07,03,04,16,11.70
2008,07,03,04,17,11.70
2008,07,03,04,18,11.70
2008,07,03,04,19,11.70
2008,07,03,04,20,11.70
2008,07,03,04,21,11.70
2008,07,03,04,22,11.70
2008,07,03,04,23,11.70
2008,07,03,04,24,11.70
2008,07,03,04,25,11.70
2008,07,03,04,26,11.70
2008,07,03,04,27,11.70
2008,07,03,04,28,11.70
2008,07,03,04,29,11.70
2008,07,03,04,30,11.70
2008,07,03,04,31,11.70
2008,07,03,04,32,11.60
2008,07,03,04,33,11.60
2008,07,03,04,34,11.60
2008,07,03,04,35,11.60
2008,07,03,04,36,11.60
2008,07,03,04,37,11.60
2008,07,03,04,38,11.60
2008,07,03,04,39,11.60
2008,07,03,04,40,11.60
2008,07,03,04,41,11.60
2008,07,03,04,42,11.60
2008,07,03,04,43,11.60
2008,07,03,04,44,11.60
2008,07,03,04,45,11.60
2008,07,03,04,46,11.60
2008,07,03,04,47,11.60
2008,07,03,04,48,11.60
2008,07,03,04,49,11.60
2008,07,03,04,50,11.60
2008,07,03,04,51,11.60
2008,07,03,04,52,11.60
2008,07,03,04,53,11.60
2008,07,03,04,54,11.60
2008,07,03,04,55,11.70
2008,07,03,04,56,11.70
2008,07,03,04,57,11.70
2008,07,03,04,58,11.70
2008,07,03,04,59,11.60
2008,07,03,05,00,11.60
2008,07,03,05,01,11.70
2008,07,03,05,02,11.70
2008,07,03,05,03,11.70
2008,07,03,05,04,11.70
2008,07,03,05,05,11.70
2008,07,03,05,06,11.70
2008,07,03,05,07,11.70
2008,07,03,05,08,11.70
2008,07,03,05,09,11.70
2008,07,03,05,10,11.70
2008,07,03,05,11,11.70
2008,07,03,05,12,11.80
2008,07,03,05,13,11.80
2008,07,03,05,14,11.80
2008,07,03,05,15,11.80
2008,07,03,05,16,11.90
2008,07,03,05,17,12.00
2008,07,03,05,18,12.00
2008,07,03,05,19,12.10
2008,07,03,05,20,12.10
2008,07,03,05,21,12.10
2008,07,03,05,22,12.10
2008,07,03,05,23,12.10
2008,07,03,05,24,12.10
2008,07,03,05,25,12.20
2008,07,03,05,26,12.30
2008,07,03,05,27,12.30
2008,07,03,05,28,12.40
2008,07,03,05,29,12.40
2008,07,03,05,30,12.40
2008,07,03,05,31,12.40
2008,07,03,05,32,12.50
2008,07,03,05,33,12.50
2008,07,03,05,34,12.50
2008,07,03,05,35,12.50
2008,07,03,05,36,12.50
2008,07,03,05,37,12.50
2008,07,03,05,38,12.50
2008,07,03,05,39,12.50
2008,07,03,05,40,12.50
2008,07,03,05,41,12.50
2008,07,03,05,42,12.50
2008,07,03,05,43,12.50
2008,07,03,05,44,12.50
2008,07,03,05,45,12.40
2008,07,03,05,46,12.40
2008,07,03,05,47,12.30
2008,07,03,05,48,12.30
2008,07,03,05,49,12.30
2008,07,03,05,50,12.30
2008,07,03,05,51,12.20
2008,07,03,05,52,12.20
2008,07,03,05,53,12.20
2008,07,03,05,54,12.20
2008,07,03,05,55,12.10
2008,07,03,05,56,12.10
2008,07,03,05,57,12.10
2008,07,03,05,58,12.10
2008,07,03,05,59,12.10
2008,07,03,06,00,12.10
2008,07,03,06,01,12.10
2008,07,03,06,02,12.10
2008,07,03,06,03,12.10
2008,07,03,06,04,12.10
2008,07,03,06,05,12.10
2008,07,03,06,06,12.10
2008,07,03,06,07,12.10
2008,07,03,06,08,12.10
2008,07,03,06,09,12.10
2008,07,03,06,10,12.10
2008,07,03,06,11,12.10
2008,07,03,06,12,12.10
2008,07,03,06,13,12.10
2008,07,03,06,14,12.10
2008,07,03,06,15,12.10
2008,07,03,06,16,12.10
2008,07,03,06,17,12.20
2008,07,03,06,18,12.10
2008,07,03,06,19,12.20
2008,07,03,06,20,12.20
2008,07,03,06,21,12.20
2008,07,03,06,22,12.20
2008,07,03,06,23,12.20
2008,07,03,06,24,12.20
2008,07,03,06,25,12.20
2008,07,03,06,26,12.20
2008,07,03,06,27,12.20
2008,07,03,06,28,12.20
2008,07,03,06,29,12.20
2008,07,03,06,30,12.20
2008,07,03,06,31,12.20
2008,07,03,06,32,12.20
2008,07,03,06,33,12.20
2008,07,03,06,34,12.20
2008,07,03,06,35,12.20
2008,07,03,06,36,12.30
2008,07,03,06,37,12.30
2008,07,03,06,38,12.30
2008,07,03,06,39,12.30
2008,07,03,06,40,12.40
2008,07,03,06,41,12.40
2008,07,03,06,42,12.40
2008,07,03,06,43,12.40
2008,07,03,06,44,12.40
2008,07,03,06,45,12.40
2008,07,03,06,46,12.50
2008,07,03,06,47,12.50
2008,07,03,06,48,12.50
2008,07,03,06,49,12.60
2008,07,03,06,50,12.60
2008,07,03,06,51,12.70
2008,07,03,06,52,12.70
2008,07,03,06,53,12.70
2008,07,03,06,54,12.80
2008,07,03,06,55,12.80
2008,07,03,06,56,12.80
2008,07,03,06,57,12.80
2008,07,03,06,58,12.80
2008,07,03,06,59,12.80
2008,07,03,07,00,12.90
2008,07,03,07,01,12.90
2008,07,03,07,02,12.90
2008,07,03,07,03,12.90
2008,07,03,07,04,12.90
2008,07,03,07,05,13.00
2008,07,03,07,06,13.00
2008,07,03,07,07,13.00
2008,07,03,07,08,13.00
2008,07,03,07,09,13.00
2008,07,03,07,10,13.00
2008,07,03,07,11,13.00
2008,07,03,07,12,13.00
2008,07,03,07,13,13.10
2008,07,03,07,14,13.10
2008,07,03,07,15,13.10
2008,07,03,07,16,13.10
2008,07,03,07,17,13.10
2008,07,03,07,18,13.10
2008,07,03,07,19,13.10
2008,07,03,07,20,13.10
2008,07,03,07,21,13.10
2008,07,03,07,22,13.10
2008,07,03,07,23,13.10
2008,07,03,07,24,13.10
2008,07,03,07,25,13.10
2008,07,03,07,26,13.10
2008,07,03,07,27,13.10
2008,07,03,07,28,13.10
2008,07,03,07,29,13.00
2008,07,03,07,30,13.00
2008,07,03,07,31,13.00
2008,07,03,07,32,13.00
2008,07,03,07,33,13.00
2008,07,03,07,34,13.00
2008,07,03,07,35,13.10
2008,07,03,07,36,13.10
2008,07,03,07,37,13.10
2008,07,03,07,38,13.10
2008,07,03,07,39,13.00
2008,07,03,07,40,13.00
2008,07,03,07,41,13.00
2008,07,03,07,42,13.00
2008,07,03,07,43,12.90
2008,07,03,07,44,12.90
2008,07,03,07,45,12.90
2008,07,03,07,46,12.80
2008,07,03,07,47,12.80
2008,07,03,07,48,12.80
2008,07,03,07,49,12.80
2008,07,03,07,50,12.80
2008,07,03,07,51,12.80
2008,07,03,07,52,12.80
2008,07,03,07,53,12.80
2008,07,03,07,54,12.80
2008,07,03,07,55,12.80
2008,07,03,07,56,12.80
2008,07,03,07,57,12.90
2008,07,03,07,58,12.90
2008,07,03,07,59,12.90
2008,07,03,08,00,12.90
2008,07,03,08,01,12.90
2008,07,03,08,02,12.90
2008,07,03,08,03,13.00
2008,07,03,08,04,13.00
2008,07,03,08,05,13.00
2008,07,03,08,06,13.10
2008,07,03,08,07,13.10
2008,07,03,08,08,13.10
2008,07,03,08,09,13.10
2008,07,03,08,10,13.20
2008,07,03,08,11,13.20
2008,07,03,08,12,13.30
2008,07,03,08,13,13.30
2008,07,03,08,14,13.30
2008,07,03,08,15,13.40
2008,07,03,08,16,13.40
2008,07,03,08,17,13.40
2008,07,03,08,18,13.40
2008,07,03,08,19,13.50
2008,07,03,08,20,13.50
2008,07,03,08,21,13.50
2008,07,03,08,22,13.50
2008,07,03,08,23,13.60
2008,07,03,08,24,13.60
2008,07,03,08,25,13.60
2008,07,03,08,26,13.60
2008,07,03,08,27,13.60
2008,07,03,08,28,13.60
2008,07,03,08,29,13.70
2008,07,03,08,30,13.70
